Harlan, KY

11:48 AM EDT on August 20, 2017 (GMT -0400)
Harlan

Weather History for KI35 - January, 2012

Change the Weather History Date:

Wednesday, January 18, 2012

  Actual Average (KLOZ) Record (KLOZ)
Temperature  
Mean Temperature 32 °F -  
Max Temperature 37 °F 41 °F 69 °F (1996)
Min Temperature 26 °F 25 °F -7 °F (1994)
Degree Days  
Heating Degree Days 34    
Moisture  
Dew Point 22 °F    
Average Humidity 68    
Maximum Humidity 81    
Minimum Humidity 60    
Precipitation  
Precipitation 0.00 in - - ()
Sea Level Pressure  
Sea Level Pressure 30.13 in    
Wind  
Wind Speed 4 mph ()    
Max Wind Speed 15 mph    
Max Gust Speed 20 mph    
Visibility 10.0 miles    
Events      
Averages and records for this station are not official NWS values.
T = Trace of Precipitation, MM = Missing Value Source: Averaged Metar Reports

Daily Weather History Graph

Daily Weather History Graph

Search for Another Location

Airport or City:

Trip Planner

Search our weather history database for the weather conditions in past years. The results will help you decide how hot, cold, wet, or windy it might be!

Date:

Astronomy

Jan. 18, 2012 Rise Set
Actual Time 7:44 AM EST 5:43 PM EST
Civil Twilight 7:16 AM EST 6:11 PM EST
Nautical Twilight 6:44 AM EST 6:43 PM EST
Astronomical Twilight 6:13 AM EST 7:14 PM EST
Moon 3:12 AM EST (1/18) 1:22 PM EST (1/18)
Length of Visible Light 10h 55m
Length of Day
9h 58m
Waning Crescent, 25% of the Moon is Illuminated
Jan 18
Waning Crescent
Jan 23
New
Jan 30
First Quarter
Feb 7
Full
Feb 14
Last Quarter

Hourly Weather History & Observations

Time (EST) Temp. Windchill Dew Point Humidity Pressure Visibility Wind Dir Wind Speed Gust Speed Precip Events Conditions
12:15 AM 37.4 °F 30.8 °F 30.2 °F 75% 30.08 in 10.0 mi West 9.2 mph - N/A   Overcast
12:35 AM 37.4 °F 32.1 °F 30.2 °F 75% 30.09 in 10.0 mi NNW 6.9 mph - N/A   Overcast
12:55 AM 35.6 °F 26.2 °F 30.2 °F 81% 30.09 in 10.0 mi WNW 15.0 mph 19.6 mph N/A   Overcast
1:15 AM 35.6 °F 27.5 °F 28.4 °F 75% 30.10 in 10.0 mi NW 11.5 mph 19.6 mph N/A   Overcast
1:35 AM 35.6 °F 31.7 °F 28.4 °F 75% 30.10 in 10.0 mi NNW 4.6 mph - N/A   Overcast
2:15 AM 33.8 °F 30.8 °F 28.4 °F 81% 30.11 in 10.0 mi WNW 3.5 mph - N/A   Overcast
2:35 AM 33.8 °F 28.6 °F 26.6 °F 75% 30.12 in 10.0 mi NW 5.8 mph - N/A   Overcast
2:55 AM 33.8 °F 29.6 °F 26.6 °F 75% 30.12 in 10.0 mi NW 4.6 mph - N/A   Overcast
3:15 AM 33.8 °F 25.8 °F 26.6 °F 75% 30.13 in 10.0 mi NW 10.4 mph - N/A   Overcast
3:35 AM 32.0 °F 24.2 °F 24.8 °F 75% 30.12 in 10.0 mi West 9.2 mph - N/A   Overcast
3:55 AM 32.0 °F 26.4 °F 23.0 °F 69% 30.13 in 10.0 mi West 5.8 mph - N/A   Overcast
4:15 AM 32.0 °F 24.8 °F 23.0 °F 69% 30.12 in 10.0 mi West 8.1 mph - N/A   Overcast
4:35 AM 32.0 °F - 23.0 °F 69% 30.13 in 10.0 mi Calm Calm - N/A   Overcast
4:55 AM 32.0 °F - 23.0 °F 69% 30.13 in 10.0 mi Calm Calm - N/A   Overcast
5:15 AM 32.0 °F 27.5 °F 23.0 °F 69% 30.12 in 10.0 mi West 4.6 mph - N/A   Overcast
5:35 AM 32.0 °F - 23.0 °F 69% 30.12 in 10.0 mi Calm Calm - N/A   Overcast
5:55 AM 32.0 °F - 23.0 °F 69% 30.13 in 10.0 mi Calm Calm - N/A   Overcast
6:15 AM 30.2 °F 25.4 °F 23.0 °F 75% 30.13 in 10.0 mi West 4.6 mph - N/A   Overcast
6:35 AM 30.2 °F 26.7 °F 23.0 °F 75% 30.14 in 10.0 mi West 3.5 mph - N/A   Overcast
6:55 AM 30.2 °F 24.3 °F 21.2 °F 69% 30.14 in 10.0 mi WNW 5.8 mph - N/A   Overcast
7:15 AM 32.0 °F 24.8 °F 19.4 °F 60% 30.15 in 10.0 mi North 8.1 mph - N/A   Overcast
7:35 AM 32.0 °F 27.5 °F 21.2 °F 64% 30.15 in 10.0 mi NNW 4.6 mph - N/A   Overcast
7:55 AM 32.0 °F 27.5 °F 21.2 °F 64% 30.16 in 10.0 mi North 4.6 mph - N/A   Overcast
8:15 AM 32.0 °F 27.5 °F 21.2 °F 64% 30.17 in 10.0 mi NNW 4.6 mph - N/A   Overcast
8:35 AM 32.0 °F 28.7 °F 23.0 °F 69% 30.17 in 10.0 mi West 3.5 mph - N/A   Overcast
8:55 AM 32.0 °F 27.5 °F 23.0 °F 69% 30.18 in 10.0 mi NNW 4.6 mph - N/A   Overcast
9:15 AM 32.0 °F 26.4 °F 23.0 °F 69% 30.18 in 10.0 mi North 5.8 mph - N/A   Overcast
9:35 AM 32.0 °F 24.2 °F 21.2 °F 64% 30.19 in 10.0 mi WNW 9.2 mph - N/A   Overcast
10:15 AM 32.0 °F 26.4 °F 21.2 °F 64% 30.19 in 10.0 mi NW 5.8 mph - N/A   Overcast
10:35 AM 32.0 °F 26.4 °F 21.2 °F 64% 30.20 in 10.0 mi NW 5.8 mph - N/A   Overcast
10:55 AM 32.0 °F - 21.2 °F 64% 30.20 in 10.0 mi Calm Calm - N/A   Overcast
11:15 AM 32.0 °F 27.5 °F 21.2 °F 64% 30.20 in 10.0 mi North 4.6 mph - N/A   Overcast
11:35 AM 32.0 °F 24.8 °F 21.2 °F 64% 30.19 in 10.0 mi WNW 8.1 mph - N/A   Overcast
11:55 AM 32.0 °F 26.4 °F 21.2 °F 64% 30.19 in 10.0 mi WNW 5.8 mph - N/A   Overcast
12:15 PM 32.0 °F 27.5 °F 21.2 °F 64% 30.18 in 10.0 mi WNW 4.6 mph - N/A   Overcast
12:35 PM 32.0 °F 27.5 °F 21.2 °F 64% 30.18 in 10.0 mi WNW 4.6 mph - N/A   Overcast
12:55 PM 32.0 °F - 21.2 °F 64% 30.18 in 10.0 mi Calm Calm - N/A   Overcast
1:15 PM 32.0 °F - 21.2 °F 64% 30.16 in 10.0 mi Calm Calm - N/A   Overcast
1:35 PM 32.0 °F - 21.2 °F 64% 30.15 in 10.0 mi Calm Calm - N/A   Overcast
1:55 PM 32.0 °F 28.7 °F 21.2 °F 64% 30.14 in 10.0 mi ENE 3.5 mph - N/A   Overcast
2:35 PM 32.0 °F - 19.4 °F 60% 30.13 in 10.0 mi Calm Calm - N/A   Overcast
3:15 PM 32.0 °F 27.5 °F 21.2 °F 64% 30.14 in 10.0 mi West 4.6 mph - N/A   Overcast
3:35 PM 32.0 °F - 21.2 °F 64% 30.13 in 10.0 mi Calm Calm - N/A   Overcast
3:55 PM 32.0 °F - 19.4 °F 60% 30.13 in 10.0 mi Calm Calm - N/A   Overcast
4:15 PM 32.0 °F - 21.2 °F 64% 30.13 in 10.0 mi Calm Calm - N/A   Overcast
4:35 PM 32.0 °F - 19.4 °F 60% 30.13 in 10.0 mi Calm Calm - N/A   Overcast
4:55 PM 32.0 °F - 21.2 °F 64% 30.12 in 10.0 mi Calm Calm - N/A   Overcast
5:15 PM 32.0 °F - 19.4 °F 60% 30.11 in 10.0 mi Calm Calm - N/A   Overcast
5:35 PM 32.0 °F - 19.4 °F 60% 30.12 in 10.0 mi Calm Calm - N/A   Overcast
5:55 PM 32.0 °F - 19.4 °F 60% 30.11 in 10.0 mi Calm Calm - N/A   Overcast
6:15 PM 32.0 °F 28.7 °F 19.4 °F 60% 30.12 in 10.0 mi WNW 3.5 mph - N/A   Overcast
6:35 PM 32.0 °F - 19.4 °F 60% 30.11 in 10.0 mi Calm Calm - N/A   Overcast
6:55 PM 30.2 °F 25.4 °F 19.4 °F 64% 30.11 in 10.0 mi West 4.6 mph - N/A   Overcast
7:15 PM 32.0 °F - 19.4 °F 60% 30.12 in 10.0 mi Calm Calm - N/A   Overcast
7:35 PM 30.2 °F - 21.2 °F 69% 30.13 in 10.0 mi Calm Calm - N/A   Overcast
7:55 PM 30.2 °F - 19.4 °F 64% 30.12 in 10.0 mi Calm Calm - N/A   Overcast
8:15 PM 30.2 °F - 19.4 °F 64% 30.13 in 10.0 mi Calm Calm - N/A   Overcast
8:35 PM 30.2 °F - 19.4 °F 64% 30.11 in 10.0 mi Calm Calm - N/A   Scattered Clouds
8:55 PM 30.2 °F - 21.2 °F 69% 30.11 in 10.0 mi Calm Calm - N/A   Clear
9:15 PM 28.4 °F - 21.2 °F 74% 30.10 in 10.0 mi Calm Calm - N/A   Clear
9:35 PM 28.4 °F - 21.2 °F 74% 30.10 in 10.0 mi Calm Calm - N/A   Clear
9:55 PM 28.4 °F - 21.2 °F 74% 30.11 in 10.0 mi Calm Calm - N/A   Clear
10:35 PM 26.6 °F - 21.2 °F 80% 30.11 in 10.0 mi Calm Calm - N/A   Clear
10:55 PM 26.6 °F - 21.2 °F 80% 30.10 in 10.0 mi Calm Calm - N/A   Clear
11:15 PM 26.6 °F - 21.2 °F 80% 30.10 in 10.0 mi Calm Calm - N/A   Clear
11:35 PM 26.6 °F - 21.2 °F 80% 30.10 in 10.0 mi Calm Calm - N/A   Clear
11:55 PM 26.6 °F - 21.2 °F 80% 30.10 in 10.0 mi Calm Calm - N/A   Clear